Time,TemperatureF,DewpointF,PressureIn,WindDirection,WindDirectionDegrees,WindSpeedMPH,WindSpeedGustMPH,Humidity,HourlyPrecipIn,Conditions,Clouds,dailyrainin,SoftwareType,DateUTC
2013-04-27 00:02:00,57.0,40.0,30.18,ESE,113,3.0,3.0,52,0.00,,,0.00,,2013-04-27 05:02:00,
2013-04-27 00:12:00,57.0,40.0,30.18,ESE,113,3.0,3.0,52,0.00,,,0.00,,2013-04-27 05:12:00,
2013-04-27 00:22:00,57.0,40.0,30.18,ENE,71,0.0,0.0,52,0.00,,,0.00,,2013-04-27 05:22:00,
2013-04-27 00:32:00,55.0,41.0,30.18,ENE,71,0.0,0.0,59,0.00,,,0.00,,2013-04-27 05:32:00,
2013-04-27 00:42:00,55.0,41.0,30.18,ENE,71,0.0,0.0,59,0.00,,,0.00,,2013-04-27 05:42:00,
2013-04-27 00:52:00,54.0,40.0,30.18,ENE,71,0.0,0.0,60,0.00,,,0.00,,2013-04-27 05:52:00,
2013-04-27 01:01:00,52.0,39.0,30.18,ENE,71,0.0,0.0,62,0.00,,,0.00,,2013-04-27 06:01:00,
2013-04-27 01:12:00,52.0,39.0,30.18,ENE,71,0.0,0.0,62,0.00,,,0.00,,2013-04-27 06:12:00,
2013-04-27 01:22:00,52.0,40.0,30.18,ENE,71,0.0,0.0,63,0.00,,,0.00,,2013-04-27 06:22:00,
2013-04-27 01:32:00,51.0,40.0,30.18,ENE,71,0.0,0.0,66,0.00,,,0.00,,2013-04-27 06:32:00,
2013-04-27 01:41:00,51.0,40.0,30.18,ENE,71,0.0,0.0,66,0.00,,,0.00,,2013-04-27 06:41:00,
2013-04-27 01:52:00,49.0,41.0,30.17,ENE,71,0.0,0.0,73,0.00,,,0.00,,2013-04-27 06:52:00,
2013-04-27 02:01:00,49.0,40.0,30.17,ENE,71,0.0,0.0,70,0.00,,,0.00,,2013-04-27 07:01:00,
2013-04-27 02:11:00,49.0,40.0,30.17,ENE,71,0.0,0.0,70,0.00,,,0.00,,2013-04-27 07:11:00,
2013-04-27 02:21:00,49.0,41.0,30.16,ENE,71,0.0,0.0,74,0.00,,,0.00,,2013-04-27 07:21:00,
2013-04-27 02:31:00,47.0,40.0,30.16,ENE,71,0.0,0.0,76,0.00,,,0.00,,2013-04-27 07:31:00,
2013-04-27 02:42:00,47.0,40.0,30.16,ENE,71,0.0,0.0,76,0.00,,,0.00,,2013-04-27 07:42:00,
2013-04-27 02:52:00,47.0,40.0,30.15,ENE,71,0.0,0.0,77,0.00,,,0.00,,2013-04-27 07:52:00,
2013-04-27 03:01:00,46.0,40.0,30.15,ENE,71,0.0,0.0,78,0.00,,,0.00,,2013-04-27 08:01:00,
2013-04-27 03:11:00,46.0,40.0,30.15,ENE,71,0.0,0.0,78,0.00,,,0.00,,2013-04-27 08:11:00,
2013-04-27 03:21:00,45.0,39.0,30.14,ENE,71,0.0,0.0,78,0.00,,,0.00,,2013-04-27 08:21:00,
2013-04-27 03:33:00,44.0,39.0,30.14,ENE,71,0.0,0.0,84,0.00,,,0.00,,2013-04-27 08:33:00,
2013-04-27 03:41:00,44.0,39.0,30.14,ENE,71,0.0,0.0,84,0.00,,,0.00,,2013-04-27 08:41:00,
2013-04-27 03:51:00,44.0,40.0,30.14,ENE,71,0.0,0.0,86,0.00,,,0.00,,2013-04-27 08:51:00,
2013-04-27 04:01:00,42.0,39.0,30.14,ENE,71,0.0,0.0,90,0.00,,,0.00,,2013-04-27 09:01:00,
2013-04-27 04:11:00,42.0,40.0,30.14,ENE,71,0.0,0.0,93,0.00,,,0.00,,2013-04-27 09:11:00,
2013-04-27 04:21:00,42.0,40.0,30.14,ENE,71,0.0,0.0,93,0.00,,,0.00,,2013-04-27 09:21:00,
2013-04-27 04:33:00,42.0,41.0,30.14,ENE,71,0.0,0.0,95,0.00,,,0.00,,2013-04-27 09:33:00,
2013-04-27 04:42:00,42.0,41.0,30.14,ENE,71,0.0,0.0,95,0.00,,,0.00,,2013-04-27 09:42:00,
2013-04-27 04:53:00,42.0,41.0,30.14,ENE,71,0.0,0.0,96,0.00,,,0.00,,2013-04-27 09:53:00,
2013-04-27 05:02:00,41.0,40.0,30.14,ENE,71,0.0,0.0,97,0.00,,,0.00,,2013-04-27 10:02:00,
2013-04-27 05:12:00,41.0,40.0,30.14,ENE,71,0.0,0.0,97,0.00,,,0.00,,2013-04-27 10:12:00,
2013-04-27 05:22:00,41.0,40.0,30.13,ENE,71,0.0,0.0,98,0.00,,,0.00,,2013-04-27 10:22:00,
2013-04-27 05:32:00,40.0,40.0,30.13,ENE,71,0.0,0.0,99,0.00,,,0.00,,2013-04-27 10:32:00,
2013-04-27 05:42:00,40.0,40.0,30.13,ENE,71,0.0,0.0,99,0.00,,,0.00,,2013-04-27 10:42:00,
2013-04-27 05:52:00,40.0,40.0,30.13,ENE,71,0.0,0.0,99,0.00,,,0.00,,2013-04-27 10:52:00,
2013-04-27 06:02:00,39.0,39.0,30.12,ENE,71,0.0,0.0,99,0.00,,,0.00,,2013-04-27 11:02:00,
2013-04-27 06:11:00,39.0,39.0,30.12,ENE,71,0.0,0.0,99,0.00,,,0.00,,2013-04-27 11:11:00,
2013-04-27 06:22:00,39.0,39.0,30.12,ENE,71,0.0,0.0,99,0.00,,,0.00,,2013-04-27 11:22:00,
2013-04-27 06:31:00,39.0,39.0,30.12,ENE,71,0.0,0.0,99,0.00,,,0.00,,2013-04-27 11:31:00,
2013-04-27 06:41:00,39.0,39.0,30.12,ENE,71,0.0,0.0,99,0.00,,,0.00,,2013-04-27 11:41:00,
2013-04-27 06:52:00,38.0,38.0,30.12,ENE,71,0.0,0.0,99,0.00,,,0.00,,2013-04-27 11:52:00,
2013-04-27 07:01:00,39.0,39.0,30.12,ENE,71,0.0,0.0,99,0.00,,,0.00,,2013-04-27 12:01:00,
2013-04-27 07:11:00,39.0,39.0,30.12,ENE,71,0.0,0.0,99,0.00,,,0.00,,2013-04-27 12:11:00,
2013-04-27 07:21:00,40.0,40.0,30.12,ENE,71,0.0,0.0,99,0.00,,,0.00,,2013-04-27 12:21:00,
2013-04-27 07:32:00,40.0,40.0,30.12,ENE,71,0.0,0.0,99,0.00,,,0.00,,2013-04-27 12:32:00,
2013-04-27 07:42:00,40.0,40.0,30.12,ENE,71,0.0,0.0,99,0.00,,,0.00,,2013-04-27 12:42:00,
2013-04-27 07:52:00,42.0,42.0,30.12,ENE,71,0.0,0.0,99,0.00,,,0.00,,2013-04-27 12:52:00,
2013-04-27 08:02:00,41.0,40.0,30.13,ENE,71,0.0,0.0,98,0.00,,,0.00,,2013-04-27 13:02:00,
2013-04-27 08:11:00,41.0,40.0,30.13,ENE,71,0.0,0.0,98,0.00,,,0.00,,2013-04-27 13:11:00,
2013-04-27 08:21:00,44.0,43.0,30.13,ENE,71,0.0,0.0,98,0.00,,,0.00,,2013-04-27 13:21:00,
2013-04-27 08:32:00,44.0,43.0,30.13,ENE,71,0.0,0.0,97,0.00,,,0.00,,2013-04-27 13:32:00,
2013-04-27 08:41:00,44.0,43.0,30.13,ENE,71,0.0,0.0,97,0.00,,,0.00,,2013-04-27 13:41:00,
2013-04-27 08:52:00,47.0,46.0,30.13,ENE,71,0.0,0.0,98,0.00,,,0.00,,2013-04-27 13:52:00,
2013-04-27 09:02:00,49.0,49.0,30.13,SW,216,2.0,5.0,99,0.00,,,0.00,,2013-04-27 14:02:00,
2013-04-27 09:11:00,49.0,49.0,30.13,SW,216,2.0,5.0,99,0.00,,,0.00,,2013-04-27 14:11:00,
2013-04-27 09:21:00,51.0,51.0,30.12,SE,139,1.0,5.0,99,0.00,,,0.00,,2013-04-27 14:21:00,
2013-04-27 09:31:00,52.0,51.0,30.12,SSW,210,0.0,3.0,98,0.00,,,0.00,,2013-04-27 14:31:00,
2013-04-27 09:41:00,52.0,51.0,30.12,SSW,210,0.0,3.0,98,0.00,,,0.00,,2013-04-27 14:41:00,
2013-04-27 09:52:00,52.0,51.0,30.11,SE,139,6.0,7.0,97,0.00,,,0.00,,2013-04-27 14:52:00,
2013-04-27 10:01:00,53.0,52.0,30.11,South,179,1.0,5.0,97,0.00,,,0.00,,2013-04-27 15:01:00,
2013-04-27 10:11:00,53.0,52.0,30.11,South,179,1.0,5.0,97,0.00,,,0.00,,2013-04-27 15:11:00,
2013-04-27 10:21:00,54.0,53.0,30.11,SSE,162,5.0,8.0,95,0.00,,,0.00,,2013-04-27 15:21:00,
2013-04-27 10:33:00,55.0,54.0,30.11,South,178,2.0,7.0,96,0.00,,,0.00,,2013-04-27 15:33:00,
2013-04-27 10:42:00,55.0,54.0,30.11,South,178,2.0,7.0,96,0.00,,,0.00,,2013-04-27 15:42:00,
2013-04-27 10:53:00,57.0,54.0,30.10,SSE,150,6.0,12.0,90,0.00,,,0.00,,2013-04-27 15:53:00,
2013-04-27 11:03:00,55.0,52.0,30.10,SE,142,8.0,10.0,90,0.00,,,0.00,,2013-04-27 16:03:00,
2013-04-27 11:13:00,55.0,52.0,30.10,SE,142,8.0,10.0,90,0.00,,,0.00,,2013-04-27 16:13:00,
2013-04-27 11:22:00,57.0,54.0,30.10,SSE,157,3.0,10.0,90,0.00,,,0.00,,2013-04-27 16:22:00,
2013-04-27 11:32:00,57.0,53.0,30.10,SSE,150,6.0,9.0,88,0.00,,,0.00,,2013-04-27 16:32:00,
2013-04-27 11:42:00,57.0,53.0,30.10,SSE,150,6.0,9.0,88,0.00,,,0.00,,2013-04-27 16:42:00,
2013-04-27 11:53:00,59.0,54.0,30.10,SSW,195,6.0,8.0,83,0.00,,,0.00,,2013-04-27 16:53:00,
2013-04-27 12:02:00,58.0,53.0,30.10,SE,134,6.0,9.0,82,0.00,,,0.00,,2013-04-27 17:02:00,
2013-04-27 12:11:00,58.0,53.0,30.10,SE,134,6.0,9.0,82,0.00,,,0.00,,2013-04-27 17:11:00,
2013-04-27 12:22:00,60.0,53.0,30.09,South,178,6.0,9.0,79,0.00,,,0.00,,2013-04-27 17:22:00,
2013-04-27 12:31:00,61.0,54.0,30.09,South,170,3.0,3.0,77,0.00,,,0.00,,2013-04-27 17:31:00,
2013-04-27 12:42:00,61.0,54.0,30.09,South,170,3.0,3.0,77,0.00,,,0.00,,2013-04-27 17:42:00,
2013-04-27 12:53:00,62.0,54.0,30.09,SSW,194,5.0,8.0,76,0.00,,,0.00,,2013-04-27 17:53:00,
2013-04-27 13:02:00,63.0,55.0,30.08,South,170,5.0,8.0,74,0.00,,,0.00,,2013-04-27 18:02:00,
2013-04-27 13:11:00,63.0,55.0,30.08,South,170,5.0,8.0,74,0.00,,,0.00,,2013-04-27 18:11:00,
2013-04-27 13:22:00,64.0,54.0,30.07,SSE,153,5.0,8.0,71,0.00,,,0.00,,2013-04-27 18:22:00,
2013-04-27 13:32:00,66.0,55.0,30.06,East,86,2.0,6.0,67,0.00,,,0.00,,2013-04-27 18:32:00,
2013-04-27 13:41:00,66.0,55.0,30.06,East,86,2.0,6.0,67,0.00,,,0.00,,2013-04-27 18:41:00,
2013-04-27 13:52:00,66.0,54.0,30.06,SSW,194,7.0,10.0,65,0.00,,,0.00,,2013-04-27 18:52:00,
2013-04-27 14:02:00,67.0,54.0,30.05,SSW,195,6.0,9.0,63,0.00,,,0.00,,2013-04-27 19:02:00,
2013-04-27 14:11:00,67.0,54.0,30.05,SSW,195,6.0,9.0,63,0.00,,,0.00,,2013-04-27 19:11:00,
2013-04-27 14:21:00,68.0,51.0,30.04,South,171,6.0,9.0,54,0.00,,,0.00,,2013-04-27 19:21:00,
2013-04-27 14:32:00,68.0,51.0,30.04,South,190,0.0,5.0,54,0.00,,,0.00,,2013-04-27 19:32:00,
2013-04-27 14:42:00,68.0,51.0,30.04,South,190,0.0,5.0,54,0.00,,,0.00,,2013-04-27 19:42:00,
2013-04-27 14:53:00,69.0,50.0,30.03,SSE,148,8.0,12.0,51,0.00,,,0.00,,2013-04-27 19:53:00,
2013-04-27 15:02:00,70.0,51.0,30.03,SSW,192,7.0,9.0,51,0.00,,,0.00,,2013-04-27 20:02:00,
2013-04-27 15:11:00,70.0,51.0,30.03,SSW,192,7.0,9.0,51,0.00,,,0.00,,2013-04-27 20:11:00,
2013-04-27 15:21:00,71.0,50.0,30.02,SSW,196,5.0,6.0,47,0.00,,,0.00,,2013-04-27 20:21:00,
2013-04-27 15:32:00,71.0,51.0,30.02,WSW,237,2.0,7.0,49,0.00,,,0.00,,2013-04-27 20:32:00,
2013-04-27 15:42:00,71.0,51.0,30.02,WSW,237,2.0,7.0,49,0.00,,,0.00,,2013-04-27 20:42:00,
2013-04-27 15:52:00,73.0,48.0,30.01,South,189,6.0,8.0,41,0.00,,,0.00,,2013-04-27 20:52:00,
2013-04-27 16:02:00,73.0,50.0,30.00,SSW,208,1.0,7.0,44,0.00,,,0.00,,2013-04-27 21:02:00,
2013-04-27 16:11:00,73.0,50.0,30.00,SSW,208,1.0,7.0,44,0.00,,,0.00,,2013-04-27 21:11:00,
2013-04-27 16:21:00,70.0,47.0,29.99,ESE,123,7.0,9.0,44,0.00,,,0.00,,2013-04-27 21:21:00,
2013-04-27 16:32:00,72.0,49.0,29.98,SSE,160,5.0,7.0,44,0.00,,,0.00,,2013-04-27 21:32:00,
2013-04-27 16:42:00,72.0,49.0,29.98,SSE,160,5.0,7.0,44,0.00,,,0.00,,2013-04-27 21:42:00,
2013-04-27 16:53:00,72.0,48.0,29.97,SSE,151,8.0,9.0,43,0.00,,,0.00,,2013-04-27 21:53:00,
2013-04-27 17:02:00,71.0,49.0,29.96,SSW,193,7.0,8.0,45,0.00,,,0.00,,2013-04-27 22:02:00,
2013-04-27 17:12:00,71.0,49.0,29.96,SSW,193,7.0,8.0,45,0.00,,,0.00,,2013-04-27 22:12:00,
2013-04-27 17:22:00,72.0,50.0,29.96,South,180,3.0,9.0,46,0.00,,,0.00,,2013-04-27 22:22:00,
2013-04-27 17:32:00,72.0,49.0,29.96,SSE,154,7.0,9.0,45,0.00,,,0.00,,2013-04-27 22:32:00,
2013-04-27 17:42:00,72.0,49.0,29.96,SSE,154,7.0,9.0,45,0.00,,,0.00,,2013-04-27 22:42:00,
2013-04-27 17:52:00,72.0,50.0,29.95,SE,142,7.0,10.0,46,0.00,,,0.00,,2013-04-27 22:52:00,
2013-04-27 18:02:00,72.0,51.0,29.94,SE,138,7.0,10.0,47,0.00,,,0.00,,2013-04-27 23:02:00,
2013-04-27 18:11:00,72.0,51.0,29.94,SE,138,7.0,10.0,47,0.00,,,0.00,,2013-04-27 23:11:00,
2013-04-27 18:22:00,72.0,51.0,29.94,South,185,5.0,7.0,47,0.00,,,0.00,,2013-04-27 23:22:00,
2013-04-27 18:32:00,71.0,50.0,29.94,SE,142,7.0,10.0,47,0.00,,,0.00,,2013-04-27 23:32:00,
2013-04-27 18:42:00,71.0,50.0,29.94,SE,142,7.0,10.0,47,0.00,,,0.00,,2013-04-27 23:42:00,
2013-04-27 18:52:00,72.0,50.0,29.93,South,170,7.0,10.0,46,0.00,,,0.00,,2013-04-27 23:52:00,
2013-04-27 19:01:00,71.0,49.0,29.93,SE,136,7.0,10.0,46,0.00,,,0.00,,2013-04-28 00:01:00,
2013-04-27 19:11:00,71.0,49.0,29.93,SE,136,7.0,10.0,46,0.00,,,0.00,,2013-04-28 00:11:00,
2013-04-27 19:21:00,71.0,49.0,29.93,SSE,164,8.0,9.0,46,0.00,,,0.00,,2013-04-28 00:21:00,
2013-04-27 19:31:00,70.0,49.0,29.93,SE,140,2.0,12.0,47,0.00,,,0.00,,2013-04-28 00:31:00,
2013-04-27 19:42:00,70.0,49.0,29.93,SE,140,2.0,12.0,47,0.00,,,0.00,,2013-04-28 00:42:00,
2013-04-27 19:52:00,70.0,48.0,29.93,SE,145,5.0,9.0,46,0.00,,,0.00,,2013-04-28 00:52:00,
2013-04-27 20:01:00,70.0,48.0,29.92,SSE,153,6.0,8.0,46,0.00,,,0.00,,2013-04-28 01:01:00,
2013-04-27 20:11:00,69.0,47.0,29.92,SSE,154,7.0,9.0,46,0.00,,,0.00,,2013-04-28 01:11:00,
2013-04-27 20:21:00,69.0,47.0,29.92,SSE,154,7.0,9.0,46,0.00,,,0.00,,2013-04-28 01:21:00,
2013-04-27 20:31:00,69.0,48.0,29.92,SE,143,6.0,8.0,47,0.00,,,0.00,,2013-04-28 01:31:00,
2013-04-27 20:42:00,69.0,48.0,29.92,SE,143,6.0,8.0,47,0.00,,,0.00,,2013-04-28 01:42:00,
2013-04-27 20:52:00,67.0,47.0,29.92,SSE,150,5.0,7.0,48,0.00,,,0.00,,2013-04-28 01:52:00,
2013-04-27 21:01:00,67.0,47.0,29.92,SSE,152,7.0,10.0,48,0.00,,,0.00,,2013-04-28 02:01:00,
2013-04-27 21:12:00,67.0,47.0,29.92,SSE,152,7.0,10.0,48,0.00,,,0.00,,2013-04-28 02:12:00,
2013-04-27 21:22:00,66.0,47.0,29.92,SE,145,7.0,10.0,50,0.00,,,0.00,,2013-04-28 02:22:00,
2013-04-27 21:32:00,66.0,48.0,29.92,SSE,158,7.0,12.0,53,0.00,,,0.00,,2013-04-28 02:32:00,
2013-04-27 21:42:00,66.0,48.0,29.92,SSE,158,7.0,12.0,53,0.00,,,0.00,,2013-04-28 02:42:00,
2013-04-27 21:52:00,65.0,49.0,29.91,SSE,153,8.0,13.0,57,0.00,,,0.00,,2013-04-28 02:52:00,
2013-04-27 22:01:00,64.0,49.0,29.92,SSE,152,9.0,10.0,59,0.00,,,0.00,,2013-04-28 03:01:00,
2013-04-27 22:11:00,64.0,49.0,29.92,SSE,152,9.0,10.0,59,0.00,,,0.00,,2013-04-28 03:11:00,
2013-04-27 22:21:00,64.0,50.0,29.92,SSE,156,8.0,14.0,61,0.00,,,0.00,,2013-04-28 03:21:00,
2013-04-27 22:32:00,63.0,50.0,29.92,SSE,154,10.0,14.0,62,0.00,,,0.00,,2013-04-28 03:32:00,
2013-04-27 22:42:00,63.0,50.0,29.92,SSE,154,10.0,14.0,62,0.00,,,0.00,,2013-04-28 03:42:00,
2013-04-27 22:53:00,63.0,51.0,29.93,SSE,154,6.0,14.0,65,0.00,,,0.00,,2013-04-28 03:53:00,
2013-04-27 23:02:00,62.0,51.0,29.93,SSE,151,8.0,12.0,67,0.00,,,0.00,,2013-04-28 04:02:00,
2013-04-27 23:13:00,62.0,51.0,29.93,SSE,151,8.0,12.0,67,0.00,,,0.00,,2013-04-28 04:13:00,
2013-04-27 23:22:00,62.0,52.0,29.93,South,177,7.0,13.0,70,0.00,,,0.00,,2013-04-28 04:22:00,
2013-04-27 23:32:00,61.0,52.0,29.93,South,176,7.0,13.0,71,0.00,,,0.00,,2013-04-28 04:32:00,
2013-04-27 23:42:00,61.0,52.0,29.93,South,176,7.0,13.0,71,0.00,,,0.00,,2013-04-28 04:42:00,
2013-04-27 23:53:00,60.0,51.0,29.93,SSE,167,7.0,13.0,73,0.00,,,0.00,,2013-04-28 04:53:00,